Погода в Сырском

Россия / Липецкая область     52°33′57″N   39°31′50″E
темп.,
°C
ветер,
м/с
пор.,
м/с
влажн.,
%
обл.,
%
осадки,
мм/ч
давл.,
гПа
погр.,
м
29 ноября, пн
пн2900:00+6ююв2589100 0.0 1011115
03:00+5юв3894100 0.0 1010173
06:00+5вюв4997100 0.0 1007241
09:00+6юв61498100 2.8 1005493
12:00+7ююв51097100 0.5 1003414
15:00+8ююв41199100 0.6 1001427
18:00+8ююв61398100 0.1 999675
21:00+9ююв91895100 3.0 992918
30 ноября, вт
вт3000:00+11ююв112287100 2.4 9861347
03:00+12ю112181100 3.8 9811428
06:00+9юз111782100 1.7 9811369
09:00+7юз111778100 2.1 9871294
12:00+5юз1119658 0.1 9901484
15:00+3юз101764100 0.1 9911516
18:00+2юз10176569 0.0 9921384
21:00+2зюз815735 0.0 9921030
1 декабря, ср
ср100:00+1зюз51176100 0.0 994715
03:00−1зюз4882100 0.0 994503
06:00−1з3879100 0.0 994549
09:00−1з487540 0.0 995499
12:000з586680 0.0 996965
15:000зюз5862100 0.0 996932
18:00−1зюз497195 0.0 997536
21:00−1зюз498894 0.0 998636
2 декабря, чт
чт200:00−1зюз5987100 0.0 1000585
03:00−2з59715 0.1 1002657
06:00−3з597476 0.0 1004690
09:00−3зюз487747 0.0 1006537
12:00−1юз5862100 0.0 1007660
15:000ююз6125997 0.0 1006746
18:00−1ююз71591100 0.6 1005611
21:00+1ююз7168192 0.6 1004609
3 декабря, пт
пт300:00+1юз61591100 0.0 1005576
03:00+2юз6139398 0.0 1005475
06:00+1ююз5129363 0.0 1006324
09:00+2ююз51394100 0.0 1007396
12:00+4ююз71391100 0.0 1007616
15:00+5ююз61289100 0.0 1007562
18:00+5ююз51388100 0.0 1006514
21:00+7ю61586100 0.1 1004695